Time,TemperatureF,DewpointF,PressureIn,WindDirection,WindDirectionDegrees,WindSpeedMPH,WindSpeedGustMPH,Humidity,HourlyPrecipIn,Conditions,Clouds,dailyrainin,SoftwareType,DateUTC
2013-11-23 00:00:00,53.5,53.5,30.25,North,5,0.0,4.0,100,0.01,,,0.00,Meteorologica,2013-11-23 05:00:00,
2013-11-23 00:01:00,53.4,53.4,30.24,North,5,0.0,4.0,100,0.01,,,0.00,Meteorologica,2013-11-23 05:01:00,
2013-11-23 00:02:00,53.5,53.5,30.24,North,5,0.0,0.0,100,0.01,,,0.00,Meteorologica,2013-11-23 05:02:00,
2013-11-23 00:04:00,53.3,53.3,30.25,North,5,0.0,0.0,100,0.01,,,0.00,Meteorologica,2013-11-23 05:04:00,
2013-11-23 00:05:00,53.5,53.5,30.25,NNE,17,2.6,0.0,100,0.01,,,0.00,Meteorologica,2013-11-23 05:05:00,
2013-11-23 00:10:00,53.2,53.2,30.25,NNE,19,1.1,5.9,100,0.01,,,0.00,Meteorologica,2013-11-23 05:10:00,
2013-11-23 00:15:00,53.1,53.1,30.25,NE,39,4.3,5.2,100,0.01,,,0.00,Meteorologica,2013-11-23 05:15:00,
2013-11-23 00:20:00,53.0,53.0,30.25,NE,43,1.3,6.3,100,0.01,,,0.00,Meteorologica,2013-11-23 05:20:00,
2013-11-23 00:25:00,53.1,53.1,30.25,North,7,3.9,7.0,100,0.01,,,0.00,Meteorologica,2013-11-23 05:25:00,
2013-11-23 00:31:00,53.0,53.0,30.24,ENE,60,0.0,6.0,100,0.01,,,0.00,Meteorologica,2013-11-23 05:31:00,
2013-11-23 00:36:00,53.1,53.1,30.24,NNE,29,0.1,6.3,100,0.01,,,0.00,Meteorologica,2013-11-23 05:36:00,
2013-11-23 00:41:00,53.0,53.0,30.24,NNE,18,2.0,2.0,100,0.00,,,0.00,Meteorologica,2013-11-23 05:41:00,
2013-11-23 00:46:00,53.0,53.0,30.24,NNE,22,0.0,5.5,100,0.00,,,0.00,Meteorologica,2013-11-23 05:46:00,
2013-11-23 00:51:00,52.9,52.9,30.24,NNE,22,0.0,0.0,100,0.00,,,0.00,Meteorologica,2013-11-23 05:51:00,
2013-11-23 00:56:00,53.0,53.0,30.24,NNE,22,0.0,0.0,100,0.00,,,0.00,Meteorologica,2013-11-23 05:56:00,
2013-11-23 01:01:00,52.9,52.9,30.24,NNE,22,0.0,0.0,100,0.00,,,0.00,Meteorologica,2013-11-23 06:01:00,
2013-11-23 01:07:00,52.9,52.9,30.24,NNE,22,0.0,0.0,100,0.00,,,0.00,Meteorologica,2013-11-23 06:07:00,
2013-11-23 01:12:00,52.8,52.8,30.24,NNE,22,0.0,0.0,100,0.00,,,0.00,Meteorologica,2013-11-23 06:12:00,
2013-11-23 01:17:00,52.7,52.7,30.24,NNE,22,0.0,0.0,100,0.00,,,0.00,Meteorologica,2013-11-23 06:17:00,
2013-11-23 01:22:00,52.8,52.8,30.24,NNE,22,0.0,0.0,100,0.00,,,0.00,Meteorologica,2013-11-23 06:22:00,
2013-11-23 01:27:00,52.6,52.6,30.24,NNE,22,0.0,0.0,100,0.00,,,0.00,Meteorologica,2013-11-23 06:27:00,
2013-11-23 01:32:00,52.6,52.6,30.24,NNE,22,0.0,0.0,100,0.00,,,0.00,Meteorologica,2013-11-23 06:32:00,
2013-11-23 01:38:00,52.6,52.6,30.24,NNE,22,0.0,0.0,100,0.00,,,0.00,Meteorologica,2013-11-23 06:38:00,
2013-11-23 01:43:00,52.5,52.5,30.24,NNE,22,0.0,0.0,100,0.00,,,0.00,Meteorologica,2013-11-23 06:43:00,
2013-11-23 01:48:00,52.6,52.6,30.24,NNE,22,0.0,0.0,100,0.00,,,0.00,Meteorologica,2013-11-23 06:48:00,
2013-11-23 01:53:00,52.6,52.6,30.24,NNE,22,0.0,0.0,100,0.00,,,0.00,Meteorologica,2013-11-23 06:53:00,
2013-11-23 01:58:00,52.7,52.7,30.24,NNE,22,0.0,0.0,100,0.00,,,0.00,Meteorologica,2013-11-23 06:58:00,
2013-11-23 02:03:00,52.5,52.5,30.23,NNE,22,0.0,0.0,100,0.00,,,0.00,Meteorologica,2013-11-23 07:03:00,
2013-11-23 02:09:00,52.4,52.4,30.24,NNE,22,0.0,0.0,100,0.00,,,0.00,Meteorologica,2013-11-23 07:09:00,
2013-11-23 02:14:00,52.4,52.4,30.24,NNE,22,0.0,0.0,100,0.00,,,0.00,Meteorologica,2013-11-23 07:14:00,
2013-11-23 02:19:00,52.3,52.3,30.24,NNE,22,0.0,0.0,100,0.00,,,0.00,Meteorologica,2013-11-23 07:19:00,
2013-11-23 02:25:00,52.2,52.2,30.24,NNE,22,0.0,0.0,100,0.00,,,0.00,Meteorologica,2013-11-23 07:25:00,
2013-11-23 02:30:00,52.3,52.3,30.25,NNE,22,0.0,0.0,100,0.00,,,0.00,Meteorologica,2013-11-23 07:30:00,
2013-11-23 02:35:00,52.3,52.3,30.24,NNE,22,0.0,0.0,100,0.00,,,0.00,Meteorologica,2013-11-23 07:35:00,
2013-11-23 02:41:00,52.2,52.2,30.24,NNE,22,0.0,0.0,100,0.00,,,0.00,Meteorologica,2013-11-23 07:41:00,
2013-11-23 02:46:00,52.2,52.2,30.24,NNE,22,0.0,0.0,100,0.00,,,0.00,Meteorologica,2013-11-23 07:46:00,
2013-11-23 02:51:00,52.3,52.3,30.24,NNE,22,0.0,0.0,100,0.00,,,0.00,Meteorologica,2013-11-23 07:51:00,
2013-11-23 02:56:00,52.3,52.3,30.24,NNE,22,0.0,0.0,100,0.00,,,0.00,Meteorologica,2013-11-23 07:56:00,
2013-11-23 03:01:00,52.1,52.1,30.24,NNE,22,0.0,0.0,100,0.00,,,0.00,Meteorologica,2013-11-23 08:01:00,
2013-11-23 03:07:00,52.1,52.1,30.24,NNE,22,0.0,0.0,100,0.00,,,0.00,Meteorologica,2013-11-23 08:07:00,
2013-11-23 03:12:00,52.0,52.0,30.25,NNE,22,0.0,0.0,100,0.00,,,0.00,Meteorologica,2013-11-23 08:12:00,
2013-11-23 03:17:00,52.0,52.0,30.24,NNE,22,0.0,0.0,100,0.00,,,0.00,Meteorologica,2013-11-23 08:17:00,
2013-11-23 03:22:00,51.9,51.9,30.24,NNE,22,0.0,0.0,100,0.00,,,0.00,Meteorologica,2013-11-23 08:22:00,
2013-11-23 03:27:00,52.0,52.0,30.24,NNE,22,0.0,0.0,100,0.00,,,0.00,Meteorologica,2013-11-23 08:27:00,
2013-11-23 03:32:00,51.8,51.8,30.23,NNE,22,0.0,0.0,100,0.00,,,0.00,Meteorologica,2013-11-23 08:32:00,
2013-11-23 03:38:00,51.9,51.9,30.22,NNE,22,0.0,0.0,100,0.00,,,0.00,Meteorologica,2013-11-23 08:38:00,
2013-11-23 03:43:00,51.8,51.8,30.22,NNE,22,0.0,0.0,100,0.00,,,0.00,Meteorologica,2013-11-23 08:43:00,
2013-11-23 03:49:00,51.7,51.7,30.22,NNE,22,0.0,0.0,100,0.00,,,0.00,Meteorologica,2013-11-23 08:49:00,
2013-11-23 03:54:00,51.7,51.7,30.22,NNE,22,0.0,0.0,100,0.00,,,0.00,Meteorologica,2013-11-23 08:54:00,
2013-11-23 03:59:00,51.6,51.6,30.22,NNE,22,0.0,0.0,100,0.00,,,0.00,Meteorologica,2013-11-23 08:59:00,
2013-11-23 04:04:00,51.7,51.7,30.23,NNE,22,0.0,0.0,100,0.00,,,0.00,Meteorologica,2013-11-23 09:04:00,
2013-11-23 04:10:00,51.4,51.4,30.23,NW,321,0.0,4.8,100,0.00,,,0.00,Meteorologica,2013-11-23 09:10:00,
2013-11-23 04:15:00,51.4,51.4,30.23,NNE,16,2.8,4.5,100,0.00,,,0.00,Meteorologica,2013-11-23 09:15:00,
2013-11-23 04:20:00,51.3,51.3,30.22,NNE,25,1.5,6.3,100,0.00,,,0.00,Meteorologica,2013-11-23 09:20:00,
2013-11-23 04:25:00,51.1,51.1,30.22,NNE,14,0.3,5.5,100,0.00,,,0.00,Meteorologica,2013-11-23 09:25:00,
2013-11-23 04:30:00,51.0,51.0,30.23,NNE,12,0.0,5.5,100,0.00,,,0.00,Meteorologica,2013-11-23 09:30:00,
2013-11-23 04:35:00,50.9,50.9,30.22,NW,321,2.1,4.0,100,0.00,,,0.00,Meteorologica,2013-11-23 09:35:00,
2013-11-23 04:40:00,50.7,50.7,30.22,North,5,2.3,5.3,100,0.00,,,0.00,Meteorologica,2013-11-23 09:40:00,
2013-11-23 04:45:00,50.5,50.5,30.22,NNE,29,4.1,5.1,100,0.00,,,0.00,Meteorologica,2013-11-23 09:45:00,
2013-11-23 04:50:00,50.5,50.5,30.22,North,351,0.3,7.1,100,0.00,,,0.00,Meteorologica,2013-11-23 09:50:00,
2013-11-23 04:55:00,50.4,50.4,30.22,NE,37,3.0,6.1,100,0.00,,,0.00,Meteorologica,2013-11-23 09:55:00,
2013-11-23 05:00:00,50.4,50.4,30.23,NW,310,0.1,4.7,100,0.00,,,0.00,Meteorologica,2013-11-23 10:00:00,
2013-11-23 05:05:00,50.2,50.2,30.23,NW,309,0.0,3.7,100,0.00,,,0.00,Meteorologica,2013-11-23 10:05:00,
2013-11-23 05:10:00,50.2,50.2,30.22,North,5,1.6,0.0,100,0.00,,,0.00,Meteorologica,2013-11-23 10:10:00,
2013-11-23 05:15:00,50.2,50.2,30.23,North,5,0.0,4.3,100,0.00,,,0.00,Meteorologica,2013-11-23 10:15:00,
2013-11-23 05:21:00,50.1,50.1,30.23,North,5,0.0,0.0,100,0.00,,,0.00,Meteorologica,2013-11-23 10:21:00,
2013-11-23 05:26:00,50.1,50.1,30.23,North,359,4.0,5.1,100,0.00,,,0.00,Meteorologica,2013-11-23 10:26:00,
2013-11-23 05:31:00,50.2,50.2,30.24,NE,38,0.0,4.5,100,0.00,,,0.00,Meteorologica,2013-11-23 10:31:00,
2013-11-23 05:36:00,50.0,50.0,30.24,NNW,330,0.0,6.7,100,0.00,,,0.00,Meteorologica,2013-11-23 10:36:00,
2013-11-23 05:41:00,50.1,50.1,30.25,NE,55,0.0,5.5,100,0.00,,,0.00,Meteorologica,2013-11-23 10:41:00,
2013-11-23 05:46:00,50.0,50.0,30.25,NE,45,4.0,7.4,100,0.00,,,0.00,Meteorologica,2013-11-23 10:46:00,
2013-11-23 05:51:00,49.8,49.8,30.25,South,175,4.0,6.0,100,0.00,,,0.00,Meteorologica,2013-11-23 10:51:00,
2013-11-23 05:56:00,49.7,49.7,30.25,WNW,290,2.7,4.8,100,0.00,,,0.00,Meteorologica,2013-11-23 10:56:00,
2013-11-23 06:01:00,49.6,49.6,30.25,WNW,303,4.7,6.9,100,0.00,,,0.00,Meteorologica,2013-11-23 11:01:00,
2013-11-23 06:06:00,49.4,49.4,30.25,NNE,20,2.4,8.6,100,0.00,,,0.00,Meteorologica,2013-11-23 11:06:00,
2013-11-23 06:11:00,49.2,49.2,30.25,NNE,30,2.7,6.2,100,0.00,,,0.00,Meteorologica,2013-11-23 11:11:00,
2013-11-23 06:16:00,49.1,49.1,30.25,ENE,60,4.0,5.6,100,0.00,,,0.00,Meteorologica,2013-11-23 11:16:00,
2013-11-23 06:21:00,49.1,49.1,30.25,North,358,0.0,4.3,100,0.00,,,0.00,Meteorologica,2013-11-23 11:21:00,
2013-11-23 06:26:00,49.2,49.2,30.26,North,358,0.0,0.0,100,0.00,,,0.00,Meteorologica,2013-11-23 11:26:00,
2013-11-23 06:31:00,49.0,49.0,30.26,NE,52,1.8,8.4,100,0.00,,,0.00,Meteorologica,2013-11-23 11:31:00,
2013-11-23 06:36:00,48.8,48.8,30.26,NNE,33,3.6,7.0,100,0.00,,,0.00,Meteorologica,2013-11-23 11:36:00,
2013-11-23 06:41:00,48.7,48.7,30.26,NW,324,0.8,4.4,100,0.00,,,0.00,Meteorologica,2013-11-23 11:41:00,
2013-11-23 06:46:00,48.8,48.8,30.26,NNE,25,3.7,6.0,100,0.00,,,0.00,Meteorologica,2013-11-23 11:46:00,
2013-11-23 06:51:00,48.9,48.9,30.26,NNE,24,3.2,7.0,100,0.00,,,0.00,Meteorologica,2013-11-23 11:51:00,
2013-11-23 06:57:00,48.7,48.7,30.26,NNE,14,0.0,6.5,100,0.00,,,0.00,Meteorologica,2013-11-23 11:57:00,
2013-11-23 07:02:00,48.8,48.8,30.26,NNE,26,1.8,7.0,100,0.00,,,0.00,Meteorologica,2013-11-23 12:02:00,
2013-11-23 07:07:00,48.7,48.7,30.26,North,358,0.9,5.7,100,0.00,,,0.00,Meteorologica,2013-11-23 12:07:00,
2013-11-23 07:12:00,48.5,48.5,30.26,WSW,249,3.5,10.2,100,0.00,,,0.00,Meteorologica,2013-11-23 12:12:00,
2013-11-23 07:17:00,48.2,48.2,30.27,NNW,340,2.8,8.2,100,0.00,,,0.00,Meteorologica,2013-11-23 12:17:00,
2013-11-23 07:22:00,48.2,48.2,30.27,NE,40,0.2,7.0,100,0.00,,,0.00,Meteorologica,2013-11-23 12:22:00,
2013-11-23 07:27:00,48.1,48.1,30.28,NNE,16,3.6,5.3,100,0.00,,,0.00,Meteorologica,2013-11-23 12:27:00,
2013-11-23 07:32:00,47.8,47.8,30.29,North,0,4.6,8.2,100,0.00,,,0.00,Meteorologica,2013-11-23 12:32:00,
2013-11-23 07:37:00,47.7,47.7,30.29,NE,55,3.6,7.1,100,0.00,,,0.00,Meteorologica,2013-11-23 12:37:00,
2013-11-23 07:42:00,47.4,47.4,30.29,NNE,18,3.3,6.8,100,0.00,,,0.00,Meteorologica,2013-11-23 12:42:00,
2013-11-23 07:47:00,47.6,47.6,30.29,NNE,25,0.0,6.1,100,0.00,,,0.00,Meteorologica,2013-11-23 12:47:00,
2013-11-23 07:52:00,47.5,47.5,30.29,NNW,338,2.7,4.2,100,0.00,,,0.00,Meteorologica,2013-11-23 12:52:00,
2013-11-23 08:00:00,47.4,47.4,30.29,NE,52,1.7,6.0,100,0.00,,,0.00,Meteorologica,2013-11-23 13:00:00,
2013-11-23 08:05:00,47.4,47.4,30.29,NNE,21,0.0,5.4,100,0.00,,,0.00,Meteorologica,2013-11-23 13:05:00,
2013-11-23 08:10:00,47.3,47.3,30.29,NNE,20,2.7,2.9,100,0.00,,,0.00,Meteorologica,2013-11-23 13:10:00,
2013-11-23 08:15:00,47.2,47.2,30.29,SSE,158,1.2,7.3,100,0.00,,,0.00,Meteorologica,2013-11-23 13:15:00,
2013-11-23 08:20:00,47.1,47.1,30.29,NNW,341,3.9,4.3,100,0.00,,,0.00,Meteorologica,2013-11-23 13:20:00,
2013-11-23 08:25:00,47.2,47.2,30.30,East,81,3.0,7.4,100,0.00,,,0.00,Meteorologica,2013-11-23 13:25:00,
2013-11-23 08:30:00,47.2,47.2,30.31,North,359,0.0,5.9,100,0.00,,,0.00,Meteorologica,2013-11-23 13:30:00,
2013-11-23 08:35:00,47.2,47.2,30.31,NE,39,2.7,6.1,100,0.00,,,0.00,Meteorologica,2013-11-23 13:35:00,
2013-11-23 08:40:00,47.2,47.2,30.31,North,11,2.3,7.1,100,0.00,,,0.00,Meteorologica,2013-11-23 13:40:00,
2013-11-23 08:45:00,47.1,47.1,30.32,West,266,0.3,5.0,100,0.00,,,0.00,Meteorologica,2013-11-23 13:45:00,
2013-11-23 08:50:00,47.1,47.1,30.32,NE,49,3.1,6.4,100,0.00,,,0.00,Meteorologica,2013-11-23 13:50:00,
2013-11-23 08:55:00,47.1,47.1,30.31,NE,37,1.0,7.1,100,0.00,,,0.00,Meteorologica,2013-11-23 13:55:00,
2013-11-23 09:00:00,47.1,47.1,30.32,NNE,21,0.0,4.8,100,0.00,,,0.00,Meteorologica,2013-11-23 14:00:00,
2013-11-23 09:06:00,47.1,47.1,30.32,NNE,25,0.0,2.5,100,0.00,,,0.00,Meteorologica,2013-11-23 14:06:00,
2013-11-23 09:11:00,47.1,47.1,30.32,ENE,70,1.0,4.7,100,0.00,,,0.00,Meteorologica,2013-11-23 14:11:00,
2013-11-23 09:16:00,47.1,47.1,30.32,North,355,0.2,3.8,100,0.00,,,0.00,Meteorologica,2013-11-23 14:16:00,
2013-11-23 09:21:00,47.1,47.1,30.32,North,9,0.9,3.8,100,0.00,,,0.00,Meteorologica,2013-11-23 14:21:00,
2013-11-23 09:26:00,47.1,47.1,30.32,NE,54,1.9,4.7,100,0.00,,,0.00,Meteorologica,2013-11-23 14:26:00,
2013-11-23 09:31:00,47.0,47.0,30.33,ENE,77,2.3,4.2,100,0.00,,,0.00,Meteorologica,2013-11-23 14:31:00,
2013-11-23 09:36:00,46.7,46.7,30.33,NNE,32,3.3,6.3,100,0.00,,,0.00,Meteorologica,2013-11-23 14:36:00,
2013-11-23 09:41:00,46.3,46.3,30.33,NE,49,3.3,7.5,100,0.00,,,0.00,Meteorologica,2013-11-23 14:41:00,
2013-11-23 09:46:00,46.2,46.2,30.34,NNE,31,4.2,8.2,100,0.00,,,0.00,Meteorologica,2013-11-23 14:46:00,
2013-11-23 09:51:00,46.0,46.0,30.33,North,351,2.4,6.3,100,0.00,,,0.00,Meteorologica,2013-11-23 14:51:00,
2013-11-23 09:56:00,45.9,45.9,30.33,NNE,33,4.0,6.6,100,0.00,,,0.00,Meteorologica,2013-11-23 14:56:00,
2013-11-23 10:01:00,45.7,45.7,30.34,NE,39,3.2,8.0,100,0.00,,,0.00,Meteorologica,2013-11-23 15:01:00,
2013-11-23 10:06:00,45.7,45.7,30.34,North,355,2.3,5.6,100,0.00,,,0.00,Meteorologica,2013-11-23 15:06:00,
2013-11-23 10:11:00,45.6,45.6,30.34,NNE,32,3.5,7.4,100,0.00,,,0.00,Meteorologica,2013-11-23 15:11:00,
2013-11-23 10:16:00,45.6,45.6,30.34,NNE,21,3.9,6.9,100,0.00,,,0.00,Meteorologica,2013-11-23 15:16:00,
2013-11-23 10:21:00,45.4,45.4,30.34,NE,39,4.4,7.2,100,0.00,,,0.00,Meteorologica,2013-11-23 15:21:00,
2013-11-23 10:26:00,45.2,45.1,30.35,North,10,2.9,6.8,99,0.00,,,0.00,Meteorologica,2013-11-23 15:26:00,
2013-11-23 10:31:00,45.2,45.0,30.35,NNE,28,0.6,7.4,99,0.00,,,0.00,Meteorologica,2013-11-23 15:31:00,
2013-11-23 10:36:00,45.4,45.0,30.35,NNE,23,4.0,5.9,98,0.00,,,0.00,Meteorologica,2013-11-23 15:36:00,
2013-11-23 10:41:00,45.3,44.8,30.35,NNE,12,2.9,5.7,98,0.00,,,0.00,Meteorologica,2013-11-23 15:41:00,
2013-11-23 10:46:00,45.3,44.6,30.35,NE,52,4.2,6.9,97,0.00,,,0.00,Meteorologica,2013-11-23 15:46:00,
2013-11-23 10:51:00,45.4,43.9,30.35,NE,43,4.0,7.3,94,0.00,,,0.00,Meteorologica,2013-11-23 15:51:00,
2013-11-23 10:56:00,45.2,43.8,30.35,NNE,18,4.4,9.7,94,0.00,,,0.00,Meteorologica,2013-11-23 15:56:00,
2013-11-23 11:01:00,45.1,43.4,30.34,ENE,62,3.7,9.5,93,0.00,,,0.00,Meteorologica,2013-11-23 16:01:00,
2013-11-23 11:06:00,45.4,43.8,30.34,NE,49,3.9,9.5,94,0.00,,,0.00,Meteorologica,2013-11-23 16:06:00,
2013-11-23 11:11:00,45.6,43.3,30.34,NNE,26,3.9,6.2,91,0.00,,,0.00,Meteorologica,2013-11-23 16:11:00,
2013-11-23 11:16:00,45.7,42.4,30.33,NE,38,4.9,6.0,88,0.00,,,0.00,Meteorologica,2013-11-23 16:16:00,
2013-11-23 11:21:00,45.9,42.6,30.33,NE,46,3.0,8.7,88,0.00,,,0.00,Meteorologica,2013-11-23 16:21:00,
2013-11-23 11:26:00,46.0,42.2,30.33,NNE,32,4.2,7.7,86,0.00,,,0.00,Meteorologica,2013-11-23 16:26:00,
2013-11-23 11:31:00,46.1,42.5,30.32,NNE,12,2.2,6.7,87,0.00,,,0.00,Meteorologica,2013-11-23 16:31:00,
2013-11-23 11:36:00,46.2,42.6,30.32,NNE,33,3.2,6.1,87,0.00,,,0.00,Meteorologica,2013-11-23 16:36:00,
2013-11-23 11:41:00,46.4,41.5,30.32,North,354,4.6,9.2,82,0.00,,,0.00,Meteorologica,2013-11-23 16:41:00,
2013-11-23 11:46:00,46.5,42.0,30.32,NNE,23,2.9,9.2,84,0.00,,,0.00,Meteorologica,2013-11-23 16:46:00,
2013-11-23 11:51:00,46.7,41.8,30.32,NNE,26,5.1,8.6,82,0.00,,,0.00,Meteorologica,2013-11-23 16:51:00,
2013-11-23 11:56:00,46.7,41.5,30.32,NNE,21,3.5,8.6,82,0.00,,,0.00,Meteorologica,2013-11-23 16:56:00,
2013-11-23 12:01:00,46.4,41.2,30.32,North,1,5.2,5.3,82,0.00,,,0.00,Meteorologica,2013-11-23 17:01:00,
2013-11-23 12:06:00,46.6,41.1,30.32,NE,40,4.8,6.8,80,0.00,,,0.00,Meteorologica,2013-11-23 17:06:00,
2013-11-23 12:11:00,46.5,41.0,30.32,NE,47,4.7,8.6,80,0.00,,,0.00,Meteorologica,2013-11-23 17:11:00,
2013-11-23 12:16:00,46.6,40.9,30.32,WNW,303,3.6,8.7,80,0.00,,,0.00,Meteorologica,2013-11-23 17:16:00,
2013-11-23 12:21:00,47.0,41.4,30.31,NE,50,2.7,8.1,80,0.00,,,0.00,Meteorologica,2013-11-23 17:21:00,
2013-11-23 12:26:00,47.2,41.1,30.31,ENE,65,3.8,6.9,79,0.00,,,0.00,Meteorologica,2013-11-23 17:26:00,
2013-11-23 12:31:00,47.4,40.2,30.31,NW,317,3.3,7.4,75,0.00,,,0.00,Meteorologica,2013-11-23 17:31:00,
2013-11-23 12:36:00,47.4,39.2,30.30,NNE,22,4.2,8.3,72,0.00,,,0.00,Meteorologica,2013-11-23 17:36:00,
2013-11-23 12:41:00,47.7,40.1,30.30,NNE,32,4.9,8.0,74,0.00,,,0.00,Meteorologica,2013-11-23 17:41:00,
2013-11-23 12:46:00,48.1,40.5,30.30,NE,49,3.8,8.7,73,0.00,,,0.00,Meteorologica,2013-11-23 17:46:00,
2013-11-23 12:51:00,48.4,40.4,30.29,NE,44,4.2,6.0,73,0.00,,,0.00,Meteorologica,2013-11-23 17:51:00,
2013-11-23 12:56:00,48.4,40.1,30.30,NNE,15,1.9,6.7,72,0.00,,,0.00,Meteorologica,2013-11-23 17:56:00,
2013-11-23 13:01:00,48.4,39.7,30.30,NE,36,2.8,9.9,71,0.00,,,0.00,Meteorologica,2013-11-23 18:01:00,
2013-11-23 13:06:00,48.2,39.4,30.30,North,7,2.0,5.7,71,0.00,,,0.00,Meteorologica,2013-11-23 18:06:00,
2013-11-23 13:11:00,48.2,39.5,30.30,North,2,0.0,8.0,71,0.00,,,0.00,Meteorologica,2013-11-23 18:11:00,
2013-11-23 13:16:00,48.2,38.8,30.30,NE,36,3.4,5.7,69,0.00,,,0.00,Meteorologica,2013-11-23 18:16:00,
2013-11-23 13:21:00,48.4,39.2,30.29,North,8,3.5,7.9,70,0.00,,,0.00,Meteorologica,2013-11-23 18:21:00,
2013-11-23 13:26:00,48.3,38.7,30.29,NE,38,4.8,7.2,68,0.00,,,0.00,Meteorologica,2013-11-23 18:26:00,
2013-11-23 13:31:00,48.5,39.0,30.29,NNE,21,4.6,9.8,69,0.00,,,0.00,Meteorologica,2013-11-23 18:31:00,
2013-11-23 13:36:00,48.6,38.8,30.29,North,7,5.8,8.1,68,0.00,,,0.00,Meteorologica,2013-11-23 18:36:00,
2013-11-23 13:41:00,48.6,38.7,30.29,North,0,2.9,8.1,68,0.00,,,0.00,Meteorologica,2013-11-23 18:41:00,
2013-11-23 13:46:00,48.5,37.8,30.30,NE,54,4.2,7.2,66,0.00,,,0.00,Meteorologica,2013-11-23 18:46:00,
2013-11-23 13:51:00,48.5,38.5,30.30,NNE,27,2.3,8.2,68,0.00,,,0.00,Meteorologica,2013-11-23 18:51:00,
2013-11-23 13:56:00,48.4,38.2,30.30,North,358,2.9,8.7,67,0.00,,,0.00,Meteorologica,2013-11-23 18:56:00,
2013-11-23 14:01:00,48.3,38.1,30.29,NNE,20,3.5,6.7,67,0.00,,,0.00,Meteorologica,2013-11-23 19:01:00,
2013-11-23 14:06:00,48.6,37.6,30.29,NW,320,3.7,7.9,65,0.00,,,0.00,Meteorologica,2013-11-23 19:06:00,
2013-11-23 14:11:00,48.8,37.9,30.29,ENE,76,1.2,7.9,65,0.00,,,0.00,Meteorologica,2013-11-23 19:11:00,
2013-11-23 14:16:00,49.2,38.6,30.29,NNE,23,4.0,6.4,66,0.00,,,0.00,Meteorologica,2013-11-23 19:16:00,
2013-11-23 14:21:00,49.3,38.1,30.29,NNE,18,0.1,7.7,64,0.00,,,0.00,Meteorologica,2013-11-23 19:21:00,
2013-11-23 14:26:00,49.5,38.0,30.29,ENE,63,1.3,5.7,64,0.00,,,0.00,Meteorologica,2013-11-23 19:26:00,
2013-11-23 14:31:00,49.7,38.4,30.28,NNE,33,1.0,4.8,64,0.00,,,0.00,Meteorologica,2013-11-23 19:31:00,
2013-11-23 14:36:00,49.6,38.0,30.28,North,7,0.1,5.5,64,0.00,,,0.00,Meteorologica,2013-11-23 19:36:00,
2013-11-23 14:41:00,49.7,38.0,30.28,NE,38,0.1,5.6,63,0.00,,,0.00,Meteorologica,2013-11-23 19:41:00,
2013-11-23 14:46:00,49.8,38.3,30.29,NNE,21,3.5,6.8,64,0.00,,,0.00,Meteorologica,2013-11-23 19:46:00,
2013-11-23 14:51:00,49.7,37.3,30.28,NNE,21,3.5,7.5,62,0.00,,,0.00,Meteorologica,2013-11-23 19:51:00,
2013-11-23 14:56:00,49.9,36.9,30.28,NNE,15,3.2,7.4,60,0.00,,,0.00,Meteorologica,2013-11-23 19:56:00,
2013-11-23 15:01:00,49.9,36.9,30.28,NE,40,4.0,6.9,60,0.00,,,0.00,Meteorologica,2013-11-23 20:01:00,
2013-11-23 15:06:00,49.9,36.8,30.27,ESE,123,4.3,8.1,60,0.00,,,0.00,Meteorologica,2013-11-23 20:06:00,
2013-11-23 15:11:00,49.9,36.2,30.28,North,7,1.2,9.4,58,0.00,,,0.00,Meteorologica,2013-11-23 20:11:00,
2013-11-23 15:16:00,49.8,35.6,30.28,NNE,31,2.0,10.2,57,0.00,,,0.00,Meteorologica,2013-11-23 20:16:00,
2013-11-23 15:21:00,49.6,35.0,30.27,NNE,29,3.7,8.9,56,0.00,,,0.00,Meteorologica,2013-11-23 20:21:00,
2013-11-23 15:26:00,49.7,34.1,30.29,NNE,21,4.7,10.8,54,0.00,,,0.00,Meteorologica,2013-11-23 20:26:00,
2013-11-23 15:31:00,49.5,34.0,30.29,NNE,15,3.7,7.7,54,0.00,,,0.00,Meteorologica,2013-11-23 20:31:00,
2013-11-23 15:36:00,49.6,34.3,30.28,ENE,66,2.2,6.8,55,0.00,,,0.00,Meteorologica,2013-11-23 20:36:00,
2013-11-23 15:41:00,49.5,34.3,30.29,NE,34,3.2,7.4,55,0.00,,,0.00,Meteorologica,2013-11-23 20:41:00,
2013-11-23 15:46:00,49.4,34.2,30.29,North,356,2.4,8.5,55,0.00,,,0.00,Meteorologica,2013-11-23 20:46:00,
2013-11-23 15:51:00,49.0,33.3,30.29,NNE,21,6.2,10.2,53,0.00,,,0.00,Meteorologica,2013-11-23 20:51:00,
2013-11-23 15:56:00,48.9,33.4,30.29,NW,308,3.4,7.9,54,0.00,,,0.00,Meteorologica,2013-11-23 20:56:00,
2013-11-23 16:01:00,48.9,33.5,30.30,WNW,287,2.3,6.9,55,0.00,,,0.00,Meteorologica,2013-11-23 21:01:00,
2013-11-23 16:06:00,48.7,34.0,30.29,ESE,114,1.4,9.1,56,0.00,,,0.00,Meteorologica,2013-11-23 21:06:00,
2013-11-23 16:11:00,48.8,34.2,30.29,NE,36,0.0,8.9,57,0.00,,,0.00,Meteorologica,2013-11-23 21:11:00,
2013-11-23 16:16:00,48.6,34.6,30.30,NE,46,0.6,7.1,58,0.00,,,0.00,Meteorologica,2013-11-23 21:16:00,
2013-11-23 16:21:00,48.5,34.8,30.30,NNW,338,1.6,4.7,58,0.00,,,0.00,Meteorologica,2013-11-23 21:21:00,
2013-11-23 16:26:00,48.3,34.5,30.30,NE,42,0.9,8.5,58,0.00,,,0.00,Meteorologica,2013-11-23 21:26:00,
2013-11-23 16:31:00,48.0,34.4,30.31,North,2,1.3,5.3,59,0.00,,,0.00,Meteorologica,2013-11-23 21:31:00,
2013-11-23 16:36:00,47.7,34.2,30.31,NNE,19,0.1,5.1,59,0.00,,,0.00,Meteorologica,2013-11-23 21:36:00,
2013-11-23 16:41:00,47.5,34.0,30.31,NNE,24,2.8,7.4,59,0.00,,,0.00,Meteorologica,2013-11-23 21:41:00,
2013-11-23 16:46:00,47.2,33.7,30.31,NE,37,1.5,6.0,59,0.00,,,0.00,Meteorologica,2013-11-23 21:46:00,
2013-11-23 16:51:00,47.0,33.0,30.32,ENE,64,5.8,8.6,57,0.00,,,0.00,Meteorologica,2013-11-23 21:51:00,
2013-11-23 16:56:00,46.9,32.6,30.32,NE,36,3.4,9.7,57,0.00,,,0.00,Meteorologica,2013-11-23 21:56:00,
2013-11-23 17:01:00,46.8,32.9,30.32,NNE,25,0.8,6.5,58,0.00,,,0.00,Meteorologica,2013-11-23 22:01:00,
2013-11-23 17:06:00,46.7,33.4,30.32,ENE,57,0.7,3.9,59,0.00,,,0.00,Meteorologica,2013-11-23 22:06:00,
2013-11-23 17:11:00,46.4,33.3,30.32,NNE,21,0.7,6.3,60,0.00,,,0.00,Meteorologica,2013-11-23 22:11:00,
2013-11-23 17:16:00,46.2,33.6,30.32,SW,224,3.2,6.3,61,0.00,,,0.00,Meteorologica,2013-11-23 22:16:00,
2013-11-23 17:21:00,46.1,34.0,30.33,NE,37,4.0,7.2,62,0.00,,,0.00,Meteorologica,2013-11-23 22:21:00,
2013-11-23 17:26:00,45.9,33.7,30.33,North,359,2.6,7.4,61,0.00,,,0.00,Meteorologica,2013-11-23 22:26:00,
2013-11-23 17:31:00,45.7,33.8,30.33,North,4,2.5,7.4,62,0.00,,,0.00,Meteorologica,2013-11-23 22:31:00,
2013-11-23 17:36:00,45.4,33.7,30.33,WSW,239,1.5,10.3,63,0.00,,,0.00,Meteorologica,2013-11-23 22:36:00,
2013-11-23 17:41:00,45.4,33.8,30.34,NNW,338,1.6,8.2,63,0.00,,,0.00,Meteorologica,2013-11-23 22:41:00,
2013-11-23 17:46:00,45.2,33.8,30.34,NNE,12,2.2,6.6,64,0.00,,,0.00,Meteorologica,2013-11-23 22:46:00,
2013-11-23 17:51:00,44.8,33.8,30.34,NNE,24,2.8,6.4,65,0.00,,,0.00,Meteorologica,2013-11-23 22:51:00,
2013-11-23 17:56:00,44.8,34.2,30.34,NNE,25,0.4,5.3,65,0.00,,,0.00,Meteorologica,2013-11-23 22:56:00,
2013-11-23 18:01:00,44.5,33.7,30.34,NNW,340,0.1,6.4,65,0.00,,,0.00,Meteorologica,2013-11-23 23:01:00,
2013-11-23 18:06:00,44.3,33.4,30.35,SE,124,4.5,7.3,65,0.00,,,0.00,Meteorologica,2013-11-23 23:06:00,
2013-11-23 18:09:00,44.3,33.0,30.34,NNE,17,6.3,7.3,64,0.00,,,0.00,Meteorologica,2013-11-23 23:09:00,
2013-11-23 18:14:00,44.0,32.8,30.34,NNE,25,4.2,10.4,64,0.00,,,0.00,Meteorologica,2013-11-23 23:14:00,
2013-11-23 18:19:00,43.9,32.8,30.34,NNE,25,5.9,7.6,64,0.00,,,0.00,Meteorologica,2013-11-23 23:19:00,
2013-11-23 18:24:00,43.6,32.6,30.35,North,9,3.9,12.0,64,0.00,,,0.00,Meteorologica,2013-11-23 23:24:00,
2013-11-23 18:29:00,43.5,32.3,30.35,NE,50,6.1,9.8,64,0.00,,,0.00,Meteorologica,2013-11-23 23:29:00,
2013-11-23 18:34:00,43.3,31.8,30.35,North,7,6.6,10.2,63,0.00,,,0.00,Meteorologica,2013-11-23 23:34:00,
2013-11-23 18:39:00,43.2,31.9,30.35,ESE,116,5.7,10.2,63,0.00,,,0.00,Meteorologica,2013-11-23 23:39:00,
2013-11-23 18:44:00,43.1,32.1,30.35,West,267,2.3,9.5,64,0.00,,,0.00,Meteorologica,2013-11-23 23:44:00,
2013-11-23 18:49:00,42.8,31.5,30.35,NNW,338,4.0,8.0,63,0.00,,,0.00,Meteorologica,2013-11-23 23:49:00,
2013-11-23 18:54:00,42.9,31.7,30.35,WNW,302,0.0,12.8,64,0.00,,,0.00,Meteorologica,2013-11-23 23:54:00,
2013-11-23 18:59:00,42.7,31.5,30.35,North,10,5.0,6.7,64,0.00,,,0.00,Meteorologica,2013-11-23 23:59:00,
2013-11-23 19:04:00,42.5,31.4,30.35,NNE,18,0.0,6.8,64,0.00,,,0.00,Meteorologica,2013-11-24 00:04:00,
2013-11-23 19:09:00,42.5,31.5,30.35,ESE,118,2.0,3.8,64,0.00,,,0.00,Meteorologica,2013-11-24 00:09:00,
2013-11-23 19:14:00,42.3,31.3,30.35,ESE,118,0.0,6.1,64,0.00,,,0.00,Meteorologica,2013-11-24 00:14:00,
2013-11-23 19:19:00,42.2,31.1,30.35,NNE,14,1.4,6.7,64,0.00,,,0.00,Meteorologica,2013-11-24 00:19:00,
2013-11-23 19:24:00,42.2,31.1,30.35,SW,228,1.7,4.5,64,0.00,,,0.00,Meteorologica,2013-11-24 00:24:00,
2013-11-23 19:29:00,41.9,29.7,30.35,NE,36,2.0,6.4,61,0.00,,,0.00,Meteorologica,2013-11-24 00:29:00,
2013-11-23 19:34:00,42.0,29.4,30.35,North,8,1.7,11.3,60,0.00,,,0.00,Meteorologica,2013-11-24 00:34:00,
2013-11-23 19:39:00,41.8,29.0,30.35,NE,48,5.1,9.1,59,0.00,,,0.00,Meteorologica,2013-11-24 00:39:00,
2013-11-23 19:44:00,41.8,28.8,30.35,NNE,20,2.2,10.4,59,0.00,,,0.00,Meteorologica,2013-11-24 00:44:00,
2013-11-23 19:49:00,41.8,28.8,30.35,NE,38,1.0,6.1,59,0.00,,,0.00,Meteorologica,2013-11-24 00:49:00,
2013-11-23 19:55:00,41.8,29.1,30.36,North,1,0.0,6.0,60,0.00,,,0.00,Meteorologica,2013-11-24 00:55:00,
2013-11-23 20:00:00,41.6,28.6,30.36,NE,36,0.0,6.1,59,0.00,,,0.00,Meteorologica,2013-11-24 01:00:00,
2013-11-23 20:05:00,41.3,28.6,30.36,WNW,296,0.8,4.9,60,0.00,,,0.00,Meteorologica,2013-11-24 01:05:00,
2013-11-23 20:10:00,41.1,28.2,30.36,WNW,300,1.6,3.2,59,0.00,,,0.00,Meteorologica,2013-11-24 01:10:00,
2013-11-23 20:15:00,41.1,28.6,30.37,NW,306,0.0,4.9,60,0.00,,,0.00,Meteorologica,2013-11-24 01:15:00,
2013-11-23 20:20:00,41.1,28.4,30.37,NNE,16,0.9,5.9,60,0.00,,,0.00,Meteorologica,2013-11-24 01:20:00,
2013-11-23 20:25:00,40.9,27.9,30.37,NNE,16,2.7,4.6,59,0.00,,,0.00,Meteorologica,2013-11-24 01:25:00,
2013-11-23 20:30:00,41.0,28.3,30.36,North,9,2.1,7.4,60,0.00,,,0.00,Meteorologica,2013-11-24 01:30:00,
2013-11-23 20:35:00,40.7,27.7,30.36,NNE,28,4.1,6.3,59,0.00,,,0.00,Meteorologica,2013-11-24 01:35:00,
2013-11-23 20:40:00,40.8,28.1,30.36,NNE,26,0.6,8.2,59,0.00,,,0.00,Meteorologica,2013-11-24 01:40:00,
2013-11-23 20:45:00,40.6,28.0,30.37,NNE,19,0.0,6.9,60,0.00,,,0.00,Meteorologica,2013-11-24 01:45:00,
2013-11-23 20:50:00,40.5,28.0,30.37,North,11,0.5,5.5,60,0.00,,,0.00,Meteorologica,2013-11-24 01:50:00,
2013-11-23 20:55:00,40.4,28.0,30.37,NNE,13,0.6,2.0,60,0.00,,,0.00,Meteorologica,2013-11-24 01:55:00,
2013-11-23 21:00:00,40.1,27.9,30.37,NNW,348,0.0,3.5,61,0.00,,,0.00,Meteorologica,2013-11-24 02:00:00,
2013-11-23 21:06:00,40.0,27.3,30.37,NNW,348,0.0,2.9,60,0.00,,,0.00,Meteorologica,2013-11-24 02:06:00,
2013-11-23 21:11:00,39.9,26.8,30.37,NE,42,0.2,0.0,59,0.00,,,0.00,Meteorologica,2013-11-24 02:11:00,
2013-11-23 21:16:00,40.0,26.5,30.37,NNE,32,0.9,4.0,58,0.00,,,0.00,Meteorologica,2013-11-24 02:16:00,
2013-11-23 21:21:00,39.8,26.4,30.37,ENE,59,0.2,4.3,58,0.00,,,0.00,Meteorologica,2013-11-24 02:21:00,
2013-11-23 21:26:00,39.7,26.1,30.37,North,351,1.0,5.0,57,0.00,,,0.00,Meteorologica,2013-11-24 02:26:00,
2013-11-23 21:31:00,39.6,25.0,30.37,North,4,3.8,5.0,55,0.00,,,0.00,Meteorologica,2013-11-24 02:31:00,
2013-11-23 21:36:00,39.7,24.7,30.37,North,8,6.2,11.4,54,0.00,,,0.00,Meteorologica,2013-11-24 02:36:00,
2013-11-23 21:41:00,39.7,24.9,30.37,North,6,0.6,11.4,55,0.00,,,0.00,Meteorologica,2013-11-24 02:41:00,
2013-11-23 21:46:00,39.4,23.5,30.37,North,7,4.1,5.4,52,0.00,,,0.00,Meteorologica,2013-11-24 02:46:00,
2013-11-23 21:51:00,39.3,23.8,30.37,NE,35,0.6,8.4,53,0.00,,,0.00,Meteorologica,2013-11-24 02:51:00,
2013-11-23 21:56:00,39.2,23.9,30.37,SE,127,5.2,8.4,53,0.00,,,0.00,Meteorologica,2013-11-24 02:56:00,
2013-11-23 22:01:00,39.0,23.2,30.37,NNE,25,5.0,9.2,52,0.00,,,0.00,Meteorologica,2013-11-24 03:01:00,
2013-11-23 22:06:00,38.9,23.1,30.38,NNE,22,2.3,11.3,52,0.00,,,0.00,Meteorologica,2013-11-24 03:06:00,
2013-11-23 22:11:00,38.6,23.3,30.38,NNW,348,3.0,10.0,53,0.00,,,0.00,Meteorologica,2013-11-24 03:11:00,
2013-11-23 22:16:00,38.5,22.7,30.38,NNE,31,5.8,8.1,52,0.00,,,0.00,Meteorologica,2013-11-24 03:16:00,
2013-11-23 22:21:00,38.3,22.8,30.38,ENE,72,6.7,11.0,53,0.00,,,0.00,Meteorologica,2013-11-24 03:21:00,
2013-11-23 22:26:00,38.3,22.9,30.38,NNE,29,5.5,10.5,53,0.00,,,0.00,Meteorologica,2013-11-24 03:26:00,
2013-11-23 22:31:00,38.2,23.4,30.38,NE,49,3.5,9.1,55,0.00,,,0.00,Meteorologica,2013-11-24 03:31:00,
2013-11-23 22:36:00,38.1,23.3,30.38,ENE,63,0.0,11.6,54,0.00,,,0.00,Meteorologica,2013-11-24 03:36:00,
2013-11-23 22:41:00,37.8,23.2,30.38,NNE,16,4.9,9.0,55,0.00,,,0.00,Meteorologica,2013-11-24 03:41:00,
2013-11-23 22:46:00,37.7,23.2,30.38,NE,39,0.7,7.4,55,0.00,,,0.00,Meteorologica,2013-11-24 03:46:00,
2013-11-23 22:51:00,37.4,22.5,30.38,NNE,19,5.2,10.6,54,0.00,,,0.00,Meteorologica,2013-11-24 03:51:00,
2013-11-23 22:56:00,37.3,21.6,30.38,NW,326,4.2,9.7,52,0.00,,,0.00,Meteorologica,2013-11-24 03:56:00,
2013-11-23 23:01:00,37.0,21.4,30.38,NNE,29,6.1,10.6,53,0.00,,,0.00,Meteorologica,2013-11-24 04:01:00,
2013-11-23 23:06:00,36.9,21.9,30.39,WSW,244,4.4,10.7,54,0.00,,,0.00,Meteorologica,2013-11-24 04:06:00,
2013-11-23 23:11:00,36.7,22.1,30.39,NNE,14,3.6,8.8,55,0.00,,,0.00,Meteorologica,2013-11-24 04:11:00,
2013-11-23 23:16:00,36.5,22.0,30.39,NE,55,4.3,6.6,55,0.00,,,0.00,Meteorologica,2013-11-24 04:16:00,
2013-11-23 23:21:00,36.1,21.8,30.40,ENE,78,5.7,8.7,55,0.00,,,0.00,Meteorologica,2013-11-24 04:21:00,
2013-11-23 23:26:00,36.0,22.1,30.39,NNE,19,3.9,12.0,56,0.00,,,0.00,Meteorologica,2013-11-24 04:26:00,
2013-11-23 23:31:00,35.8,22.2,30.40,WSW,239,4.0,13.3,57,0.00,,,0.00,Meteorologica,2013-11-24 04:31:00,
2013-11-23 23:36:00,35.5,22.0,30.40,North,359,6.8,10.9,57,0.00,,,0.00,Meteorologica,2013-11-24 04:36:00,
2013-11-23 23:41:00,35.4,22.6,30.40,North,351,5.3,12.8,59,0.00,,,0.00,Meteorologica,2013-11-24 04:41:00,
2013-11-23 23:46:00,35.1,22.4,30.40,NE,41,3.7,8.7,59,0.00,,,0.00,Meteorologica,2013-11-24 04:46:00,
2013-11-23 23:51:00,35.0,22.6,30.40,NE,45,5.4,8.9,60,0.00,,,0.00,Meteorologica,2013-11-24 04:51:00,
2013-11-23 23:56:00,34.7,22.6,30.40,North,351,7.6,8.2,60,0.00,,,0.00,Meteorologica,2013-11-24 04:56:00,